CW8845 Weather Reports


Display with metric or nautical units.
time (UTC)temp
F
wind
direction
speed
MPH
gust
MPH
rain 1hr
in
rain 24hr
in
rain mn
in
humidity
%
barometer
mb
20260504150631 55 53 3.0 5.0 0.00 0.00 0.00 37 1008.8
20260504140623 44 55 2.0 5.0 0.00 0.00 0.00 54 1008.9
20260504130613 38 68 2.0 4.0 0.00 0.00 0.00 58 1008.7
20260504110618 37 19 1.0 4.0 0.00 0.00 0.00 57 1008.2
20260504081636 41 17 1.0 5.0 0.00 0.00 0.00 51 1008.4
20260504080620 41 17 2.0 5.0 0.00 0.00 0.00 53 1008.6
20260504050624 50 10 1.0 5.0 0.00 0.00 0.00 38 1009.2
20260504045629 50 9 3.0 6.0 0.00 0.00 0.00 38 1009.2
20260504044615 49 32 2.0 5.0 0.00 0.00 0.00 38 1009.2
20260504043624 50 34 1.0 3.0 0.00 0.00 0.00 38 1009.2
20260504042631 51 26 2.0 5.0 0.00 0.00 0.00 36 1009.0
20260504041643 52 9 2.0 3.0 0.00 0.00 0.00 33 1009.0
20260504040648 54 46 0.0 2.0 0.00 0.00 0.00 31 1008.8
20260504035628 56 46 0.0 0.0 0.00 0.00 0.00 28 1008.7
20260504034616 58 46 0.0 0.0 0.00 0.00 0.00 26 1008.8
20260504033626 59 46 0.0 0.0 0.00 0.00 0.00 25 1008.7
20260504032616 61 46 0.0 0.0 0.00 0.00 0.00 24 1008.7
20260504031642 62 46 0.0 3.0 0.00 0.00 0.00 23 1008.6
20260504030648 62 139 1.0 3.0 0.00 0.00 0.00 22 1008.5
20260504025615 63 142 0.0 1.0 0.00 0.00 0.00 23 1008.5
20260504024621 64 142 1.0 3.0 0.00 0.00 0.00 20 1008.5
20260504023627 65 137 2.0 5.0 0.00 0.00 0.00 20 1008.5
20260504022614 67 142 2.0 4.0 0.00 0.00 0.00 19 1008.4
20260504021622 68 130 3.0 5.0 0.00 0.00 0.00 19 1008.4
20260504020613 69 159 2.0 4.0 0.00 0.00 0.00 19 1008.5
20260504015630 70 160 1.0 4.0 0.00 0.00 0.00 19 1008.5
20260504014637 71 169 4.0 5.0 0.00 0.00 0.00 17 1008.6
20260504013621 72 190 2.0 5.0 0.00 0.00 0.00 17 1008.7
20260504012627 72 177 4.0 5.0 0.00 0.00 0.00 16 1008.8
20260504011637 72 172 3.0 6.0 0.00 0.00 0.00 16 1008.9
20260504010623 72 168 4.0 7.0 0.00 0.00 0.00 16 1009.0
20260504005642 73 172 4.0 9.0 0.00 0.00 0.00 15 1009.0
20260504004627 73 167 6.0 10.0 0.00 0.00 0.00 15 1009.2
20260504003619 73 184 4.0 9.0 0.00 0.00 0.00 12 1009.3
20260504002626 73 191 3.0 8.0 0.00 0.00 0.00 13 1009.3
20260504001616 73 196 5.0 8.0 0.00 0.00 0.00 15 1009.4
20260504000622 74 197 5.0 7.0 0.00 0.00 0.00 16 1009.5
20260503235623 74 168 6.0 10.0 0.00 0.00 0.00 14 1009.6
20260503234614 74 188 6.0 11.0 0.00 0.00 0.00 12 1009.5
20260503233621 74 178 3.0 11.0 0.00 0.00 0.00 11 1009.7
20260503232628 75 200 8.0 10.0 0.00 0.00 0.00 11 1009.8
20260503231614 75 233 6.0 11.0 0.00 0.00 0.00 11 1009.8
20260503230625 75 180 8.0 15.0 0.00 0.00 0.00 12 1009.9
20260503225623 75 190 10.0 15.0 0.00 0.00 0.00 12 1009.9
20260503224650 76 171 10.0 15.0 0.00 0.00 0.00 11 1010.1
20260503223616 76 200 7.0 14.0 0.00 0.00 0.00 11 1010.2
20260503222627 76 184 9.0 16.0 0.00 0.00 0.00 11 1010.2
20260503221615 76 171 5.0 14.0 0.00 0.00 0.00 12 1010.3
20260503220622 76 172 8.0 15.0 0.00 0.00 0.00 11 1010.5
20260503215623 77 162 5.0 13.0 0.00 0.00 0.00 11 1010.7
20260503214614 77 142 7.0 13.0 0.00 0.00 0.00 11 1010.8
20260503213621 77 176 4.0 10.0 0.00 0.00 0.00 11 1010.9
20260503212629 76 179 7.0 10.0 0.00 0.00 0.00 13 1011.0
20260503211615 76 132 6.0 12.0 0.00 0.00 0.00 12 1011.3
20260503210625 76 202 7.0 14.0 0.00 0.00 0.00 12 1011.3
20260503205623 76 118 4.0 12.0 0.00 0.00 0.00 13 1011.6
20260503204629 76 141 6.0 11.0 0.00 0.00 0.00 13 1011.8
20260503203615 75 184 3.0 14.0 0.00 0.00 0.00 13 1011.8
20260503202627 75 190 4.0 12.0 0.00 0.00 0.00 14 1012.0
20260503201614 75 203 7.0 13.0 0.00 0.00 0.00 14 1012.2
20260503200642 75 242 6.0 12.0 0.00 0.00 0.00 15 1012.2
20260503195617 74 207 4.0 11.0 0.00 0.00 0.00 15 1012.4
20260503194630 75 224 6.0 11.0 0.00 0.00 0.00 16 1012.4
20260503193617 75 238 3.0 11.0 0.00 0.00 0.00 15 1012.7
20260503192646 74 239 5.0 12.0 0.00 0.00 0.00 16 1012.8
20260503191613 74 155 3.0 13.0 0.00 0.00 0.00 16 1012.9
20260503190645 74 231 6.0 12.0 0.00 0.00 0.00 16 1013.1
20260503185625 74 233 8.0 10.0 0.00 0.00 0.00 17 1013.2
20260503184614 73 190 6.0 9.0 0.00 0.00 0.00 17 1013.3
20260503183624 73 180 5.0 11.0 0.00 0.00 0.00 17 1013.5
20260503182617 73 178 4.0 10.0 0.00 0.00 0.00 17 1013.7
20260503181627 73 210 5.0 9.0 0.00 0.00 0.00 17 1013.7
20260503180619 73 244 5.0 10.0 0.00 0.00 0.00 17 1013.8
20260503175619 72 177 4.0 9.0 0.00 0.00 0.00 17 1013.9
20260503174627 72 236 4.0 9.0 0.00 0.00 0.00 17 1014.0
20260503173619 72 243 4.0 9.0 0.00 0.00 0.00 18 1014.1
20260503172648 71 225 4.0 7.0 0.00 0.00 0.00 18 1014.2
20260503171616 71 253 3.0 9.0 0.00 0.00 0.00 18 1014.2
20260503170625 70 208 1.0 5.0 0.00 0.00 0.00 20 1014.3